DLH44M EDDM-LPFR

Flight info

Callsign DLH44M
Flight time N/A
Altitude 24000
Route MERSI4E/08R MERSI Y100 UMTEX/N0443F350 Y100 TRA DCT LUTIX DCT BENOT DCT NEMOS DCT NINTU/N0443F370 DCT MEBAK DCT REPSI DCT LERGA DCT MINSO DCT NARAK DCT AGN DCT PIPOR L866 PPN DCT MIRPO DCT DGO DCT NEA L14 ADINO DCT ELVAR DCT ALAGU
Aircraft A321/M-SDE2E3FGIJ1LORWXYZ/HB1

Departure

Time N/A
Airport Munich Airport (EDDM)

Arrival

Time 2026-04-27 19:46
Airport Faro - Gago Coutinho International Airport (LPFR)
Time Latitude Longitude Altitude Speed Heading
2026-04-27 18:51 41.53739 -4.67922 36079 ft 417 kts 221°
2026-04-27 18:51 41.49371 -4.72940 36082 ft 417 kts 222°
2026-04-27 18:52 41.44955 -4.78016 36062 ft 417 kts 221°
2026-04-27 18:53 41.38349 -4.85586 36063 ft 417 kts 221°
2026-04-27 18:53 41.33944 -4.90628 36063 ft 418 kts 221°
2026-04-27 18:54 41.29536 -4.95659 36060 ft 418 kts 221°
2026-04-27 18:54 41.25119 -5.00681 36060 ft 418 kts 221°
2026-04-27 18:55 41.20697 -5.05689 36046 ft 418 kts 221°
2026-04-27 18:55 41.16273 -5.10703 36049 ft 418 kts 221°
2026-04-27 18:56 41.11850 -5.15705 36048 ft 418 kts 221°
2026-04-27 18:56 41.07416 -5.20700 36044 ft 418 kts 221°
2026-04-27 18:57 41.02980 -5.25701 36048 ft 418 kts 221°
2026-04-27 18:57 40.98549 -5.30693 36041 ft 418 kts 221°
2026-04-27 18:58 40.94117 -5.35670 36051 ft 418 kts 220°
2026-04-27 18:58 40.89685 -5.40633 36051 ft 418 kts 220°
2026-04-27 18:59 40.85240 -5.45602 36048 ft 418 kts 220°
2026-04-27 18:59 40.80800 -5.50566 36046 ft 418 kts 220°
2026-04-27 19:00 40.76330 -5.55557 36020 ft 418 kts 220°
2026-04-27 19:00 40.71876 -5.60512 36029 ft 418 kts 220°
2026-04-27 19:01 40.67423 -5.65458 36018 ft 419 kts 220°
2026-04-27 19:01 40.62968 -5.70393 36017 ft 419 kts 220°
2026-04-27 19:02 40.58503 -5.75320 36025 ft 419 kts 220°
2026-04-27 19:02 40.54049 -5.80247 36014 ft 418 kts 220°
2026-04-27 19:03 40.49597 -5.85164 36010 ft 418 kts 220°
2026-04-27 19:03 40.45138 -5.90070 36009 ft 418 kts 220°
2026-04-27 19:04 40.40673 -5.94976 35995 ft 418 kts 220°
2026-04-27 19:04 40.36211 -5.99866 35995 ft 418 kts 220°
2026-04-27 19:05 40.31745 -6.04759 35989 ft 418 kts 220°
2026-04-27 19:05 40.27286 -6.09635 35989 ft 418 kts 220°
2026-04-27 19:06 40.22824 -6.14509 35975 ft 417 kts 220°
2026-04-27 19:06 40.18362 -6.19374 35973 ft 417 kts 220°
2026-04-27 19:07 40.14665 -6.23398 35965 ft 417 kts 220°
2026-04-27 19:07 40.10128 -6.28324 35954 ft 417 kts 220°
2026-04-27 19:08 40.05539 -6.33297 35940 ft 418 kts 219°
2026-04-27 19:08 40.01031 -6.38176 35935 ft 419 kts 219°
2026-04-27 19:09 39.96352 -6.43222 35937 ft 420 kts 219°
2026-04-27 19:09 39.91735 -6.48195 35947 ft 420 kts 219°
2026-04-27 19:10 39.87172 -6.53111 35941 ft 420 kts 219°
2026-04-27 19:10 39.82667 -6.57950 35930 ft 420 kts 219°
2026-04-27 19:11 39.78155 -6.62787 35947 ft 421 kts 219°
2026-04-27 19:11 39.73540 -6.67718 35946 ft 421 kts 219°
2026-04-27 19:12 39.69019 -6.72543 35937 ft 422 kts 219°
2026-04-27 19:12 39.64454 -6.77421 35931 ft 422 kts 219°
2026-04-27 19:13 39.59922 -6.82242 35930 ft 422 kts 219°
2026-04-27 19:13 39.56136 -6.86259 35941 ft 422 kts 219°
2026-04-27 19:14 39.51570 -6.91100 35941 ft 421 kts 219°
2026-04-27 19:14 39.47037 -6.95910 35940 ft 421 kts 219°
2026-04-27 19:15 39.42511 -7.00704 35930 ft 421 kts 219°
2026-04-27 19:15 39.37970 -7.05490 35945 ft 421 kts 218°
2026-04-27 19:16 39.33425 -7.10274 35923 ft 421 kts 218°
2026-04-27 19:16 39.28851 -7.15086 35932 ft 422 kts 218°
2026-04-27 19:17 39.24293 -7.19848 35924 ft 422 kts 216°
2026-04-27 19:17 39.19109 -7.23318 35935 ft 422 kts 197°
2026-04-27 19:18 39.13442 -7.25308 35927 ft 422 kts 195°
2026-04-27 19:18 39.07777 -7.27295 35928 ft 422 kts 195°
2026-04-27 19:19 39.02109 -7.29289 35942 ft 423 kts 195°
2026-04-27 19:19 38.96421 -7.31282 35932 ft 423 kts 195°
2026-04-27 19:20 38.90739 -7.33262 35923 ft 423 kts 195°
2026-04-27 19:20 38.85066 -7.35231 35921 ft 423 kts 195°
2026-04-27 19:21 38.79367 -7.37204 35918 ft 424 kts 195°
2026-04-27 19:21 38.73666 -7.39189 35888 ft 426 kts 195°
2026-04-27 19:22 38.67921 -7.41180 35883 ft 429 kts 195°
2026-04-27 19:22 38.62152 -7.43170 35882 ft 430 kts 195°
2026-04-27 19:23 38.56369 -7.45170 35895 ft 432 kts 195°
2026-04-27 19:23 38.50557 -7.47176 35913 ft 432 kts 195°
2026-04-27 19:24 38.44744 -7.49175 35102 ft 438 kts 195°
2026-04-27 19:24 38.41753 -7.50201 34288 ft 441 kts 195°
2026-04-27 19:24 38.38765 -7.51223 33561 ft 440 kts 194°
2026-04-27 19:24 38.35832 -7.52230 32914 ft 438 kts 195°
2026-04-27 19:25 38.32904 -7.53237 32322 ft 434 kts 194°
2026-04-27 19:25 38.30001 -7.54232 31762 ft 431 kts 194°
2026-04-27 19:25 38.27127 -7.55215 31014 ft 423 kts 194°
2026-04-27 19:25 38.24309 -7.56178 30066 ft 418 kts 194°
2026-04-27 19:26 38.21513 -7.57132 29013 ft 412 kts 195°
2026-04-27 19:26 38.18768 -7.58068 28000 ft 406 kts 195°
2026-04-27 19:26 38.16068 -7.58990 27031 ft 400 kts 195°
2026-04-27 19:26 38.13385 -7.59906 26062 ft 395 kts 195°
2026-04-27 19:27 38.10750 -7.60804 25160 ft 390 kts 196°
2026-04-27 19:27 38.08117 -7.61387 24613 ft 376 kts 185°
2026-04-27 19:27 38.05560 -7.61428 24208 ft 360 kts 181°
2026-04-27 19:27 38.03075 -7.61427 23801 ft 346 kts 182°
2026-04-27 19:28 38.00687 -7.61434 23378 ft 342 kts 182°
2026-04-27 19:28 37.98349 -7.61443 22948 ft 338 kts 182°
2026-04-27 19:28 37.95975 -7.61448 22536 ft 334 kts 182°
2026-04-27 19:28 37.93668 -7.61454 22137 ft 330 kts 181°
2026-04-27 19:29 37.91375 -7.61458 21745 ft 326 kts 181°
2026-04-27 19:29 37.89122 -7.61456 21353 ft 323 kts 182°
2026-04-27 19:29 37.86886 -7.61452 20961 ft 319 kts 181°
2026-04-27 19:29 37.84682 -7.61450 20578 ft 316 kts 181°
2026-04-27 19:30 37.82491 -7.61450 20191 ft 313 kts 181°
2026-04-27 19:30 37.80257 -7.61452 19798 ft 311 kts 181°
2026-04-27 19:30 37.78093 -7.61455 19421 ft 309 kts 181°
2026-04-27 19:30 37.75919 -7.61456 19037 ft 307 kts 181°
2026-04-27 19:31 37.73772 -7.61455 18668 ft 305 kts 181°
2026-04-27 19:31 37.71677 -7.61454 18294 ft 303 kts 181°
2026-04-27 19:31 37.69517 -7.61454 17879 ft 301 kts 181°
2026-04-27 19:31 37.67430 -7.61458 17500 ft 300 kts 181°
2026-04-27 19:32 37.65340 -7.61464 17170 ft 298 kts 181°
2026-04-27 19:32 37.63267 -7.61468 16852 ft 297 kts 181°
2026-04-27 19:32 37.61209 -7.61473 16498 ft 296 kts 181°
2026-04-27 19:32 37.59158 -7.61476 16135 ft 294 kts 181°
2026-04-27 19:33 37.57117 -7.61475 15769 ft 292 kts 180°
2026-04-27 19:33 37.55776 -7.61473 15541 ft 293 kts 181°
2026-04-27 19:33 37.53043 -7.61471 15055 ft 291 kts 180°
2026-04-27 19:33 37.51018 -7.61471 14698 ft 292 kts 180°
2026-04-27 19:34 37.48962 -7.61473 14335 ft 290 kts 180°
2026-04-27 19:34 37.46931 -7.61476 13975 ft 289 kts 180°
2026-04-27 19:34 37.44931 -7.61479 13611 ft 287 kts 180°
2026-04-27 19:34 37.42925 -7.61479 13241 ft 284 kts 180°
2026-04-27 19:35 37.40943 -7.61479 12890 ft 283 kts 180°
2026-04-27 19:35 37.39643 -7.61479 12664 ft 282 kts 180°
2026-04-27 19:35 37.37658 -7.61475 12313 ft 281 kts 180°
2026-04-27 19:35 37.35719 -7.61473 11985 ft 280 kts 180°
2026-04-27 19:36 37.33763 -7.61471 11628 ft 278 kts 180°
2026-04-27 19:36 37.31853 -7.61470 11289 ft 278 kts 180°
2026-04-27 19:36 37.29899 -7.61468 10941 ft 276 kts 179°
2026-04-27 19:36 37.27991 -7.61469 10601 ft 274 kts 180°
2026-04-27 19:37 37.26088 -7.61471 10266 ft 273 kts 180°
2026-04-27 19:37 37.24191 -7.61472 9932 ft 271 kts 179°
2026-04-27 19:37 37.22310 -7.61473 9573 ft 270 kts 180°
2026-04-27 19:37 37.20433 -7.61474 9227 ft 268 kts 180°
2026-04-27 19:38 37.18569 -7.61477 8840 ft 269 kts 179°
2026-04-27 19:38 37.16653 -7.61742 8146 ft 284 kts 192°
2026-04-27 19:38 37.14757 -7.62310 7960 ft 275 kts 192°
2026-04-27 19:38 37.12912 -7.62863 7699 ft 271 kts 192°
2026-04-27 19:39 37.11088 -7.63409 7369 ft 270 kts 192°
2026-04-27 19:39 37.09255 -7.63955 7026 ft 270 kts 191°
2026-04-27 19:39 37.07438 -7.64499 6783 ft 260 kts 191°
2026-04-27 19:39 37.05672 -7.65028 6172 ft 265 kts 191°
2026-04-27 19:40 37.03858 -7.65568 5520 ft 265 kts 191°
2026-04-27 19:40 37.02093 -7.66127 4887 ft 258 kts 196°
2026-04-27 19:40 37.00520 -7.67136 4294 ft 251 kts 216°
2026-04-27 19:40 36.99339 -7.68616 4091 ft 229 kts 233°
2026-04-27 19:41 36.98594 -7.70280 3907 ft 216 kts 249°
2026-04-27 19:41 36.98219 -7.72074 3702 ft 213 kts 263°
2026-04-27 19:41 36.98208 -7.73959 3441 ft 212 kts 279°
2026-04-27 19:41 36.98452 -7.75705 3165 ft 206 kts 281°
2026-04-27 19:42 36.98707 -7.77476 2883 ft 198 kts 281°
2026-04-27 19:42 36.98952 -7.79178 2632 ft 190 kts 281°
2026-04-27 19:42 36.99185 -7.80803 2383 ft 181 kts 281°
2026-04-27 19:42 36.99405 -7.82330 2148 ft 177 kts 280°
2026-04-27 19:43 36.99611 -7.83772 1911 ft 170 kts 280°
2026-04-27 19:43 36.99808 -7.85141 1699 ft 168 kts 279°
2026-04-27 19:43 36.99940 -7.86065 1559 ft 168 kts 279°
2026-04-27 19:43 37.00158 -7.87584 1323 ft 162 kts 279°
2026-04-27 19:44 37.00409 -7.89341 1057 ft 157 kts 279°
2026-04-27 19:44 37.00565 -7.90434 893 ft 156 kts 279°
2026-04-27 19:44 37.00783 -7.91940 669 ft 156 kts 279°
2026-04-27 19:44 37.00906 -7.92765 544 ft 155 kts 279°
2026-04-27 19:45 37.01131 -7.94281 340 ft 147 kts 278°
2026-04-27 19:45 37.01318 -7.95687 96 ft 146 kts 279°
2026-04-27 19:45 37.01478 -7.96804 24 ft 129 kts 279°
2026-04-27 19:45 37.01588 -7.97606 19 ft 60 kts 280°
2026-04-27 19:46 37.01634 -7.97923 21 ft 31 kts 282°
2026-04-27 19:46 37.01698 -7.98105 22 ft 15 kts 304°
2026-04-27 19:46 37.01743 -7.98180 22 ft 6 kts 310°
2026-04-27 19:46 37.01752 -7.98193 21 ft 0 kts 311°
2026-04-27 19:47 37.01761 -7.98205 21 ft 3 kts 314°
2026-04-27 19:47 37.01789 -7.98231 21 ft 6 kts 329°
2026-04-27 19:47 37.01836 -7.98228 21 ft 8 kts 37°
2026-04-27 19:47 37.01855 -7.98159 21 ft 10 kts 101°
2026-04-27 19:48 37.01840 -7.98074 22 ft 12 kts 102°
2026-04-27 19:48 37.01821 -7.97964 20 ft 14 kts 100°
2026-04-27 19:48 37.01806 -7.97837 20 ft 16 kts 99°
2026-04-27 19:48 37.01787 -7.97697 20 ft 18 kts 99°
2026-04-27 19:49 37.01773 -7.97587 20 ft 19 kts 99°
2026-04-27 19:49 37.01764 -7.97516 20 ft 2 kts 99°
2026-04-27 19:49 37.01761 -7.97497 20 ft 4 kts 99°
2026-04-27 19:49 37.01755 -7.97455 22 ft 6 kts 99°
2026-04-27 19:50 37.01747 -7.97392 20 ft 8 kts 100°
2026-04-27 19:50 37.01736 -7.97315 20 ft 10 kts 100°
2026-04-27 19:50 37.01720 -7.97203 20 ft 13 kts 100°
2026-04-27 19:50 37.01702 -7.97078 20 ft 15 kts 100°
2026-04-27 19:51 37.01686 -7.96962 21 ft 9 kts 100°
2026-04-27 19:51 37.01720 -7.96902 21 ft 10 kts 19°
2026-04-27 19:51 37.01752 -7.96894 21 ft 2 kts 11°
2026-04-27 19:51 37.01773 -7.96889 21 ft 4 kts 11°
2026-04-27 19:52 37.01811 -7.96882 20 ft 6 kts
2026-04-27 19:52 37.01843 -7.96920 20 ft 8 kts 289°
2026-04-27 19:52 37.01847 -7.96945 20 ft 1 kts 281°
2026-04-27 19:52 37.01849 -7.96957 20 ft 0 kts 281°
2026-04-27 19:55 37.01852 -7.96968 20 ft 3 kts 290°
2026-04-27 19:55 37.01871 -7.96985 21 ft 4 kts 344°
2026-04-27 19:56 37.01910 -7.96979 20 ft 7 kts 10°
2026-04-27 19:56 37.01929 -7.96975 20 ft 3 kts 10°
2026-04-27 19:56 37.01934 -7.96974 20 ft 0 kts 10°